Flag for Australia Weather past 2 weeks in Canberra, Australian Capital Territory, Australia

Now
43 °F

Passing clouds.


Feels Like: 40 °F
Forecast: 38 / 54 °F
Wind: 5 mph from North

Location: Canberra Airport

Current Time: Aug 29, 2015 at 1:45:17 AM

Latest Report: Aug 29, 2015 at 1:00 AM


Visibility: N/A

Pressure: 30.18 "Hg (28.12 "Hg at 577m altitude)

Humidity: 93%

Dew point: 41 °F

Location of CanberraLocation

Historic Weather in Canberra — Graph

°F

Canberra temperature yesterday

Maximum temperature yesterday: 57 °F (at 12:00 PM)
Minimum temperature yesterday: 43 °F (at 2:00 AM)
Average temperature yesterday: 48 °F

Past Weeks' High & Low Weather Summary

 TemperatureHumidityPressure
High68 °F (Aug 22, 1:02 PM)100% (Aug 14, 4:30 AM)30.45 "Hg (Aug 14, 4:30 AM)
Low25 °F (Aug 18, 6:30 AM)41% (Aug 18, 2:00 PM)29.95 "Hg (Aug 17, 1:00 PM)
Average47 °F79%30.16 "Hg
* Reported Midnight between Aug 13 and Aug 14 — Aug 29 12:30 AM, Canberra, Weather by CustomWeather, © 2015

Note: Actual official high and low records may vary slightly from our data, if they occured in-between our weather recording intervals... More about our weather records

Advertising

Canberra weather history for previous 24 hours

 ConditionsComfort  
Time TempWeatherWind HumidityBarometerVisibility
12:30 AM
Sat, Aug 29
43 °FPassing clouds.7 mph93%30.18 "HgN/A
12:00 AM45 °FPassing clouds.8 mph87%30.18 "HgN/A
11:30 PM
Fri, Aug 28
45 °FPassing clouds.7 mph93%30.18 "HgN/A
11:00 PM45 °FMostly cloudy.9 mph93%30.18 "HgN/A
10:30 PM46 °FOvercast.8 mph87%30.18 "HgN/A
10:00 PM46 °FSprinkles. Mostly cloudy.8 mph87%30.18 "HgN/A
9:30 PM46 °FDrizzle. Overcast.6 mph87%30.18 "HgN/A
9:00 PM46 °FPartly cloudy.9 mph87%30.18 "HgN/A
8:30 PM46 °FPassing clouds.7 mph82%30.18 "HgN/A
8:00 PM46 °FPassing clouds.6 mph87%30.18 "HgN/A
7:30 PM45 °FPassing clouds.8 mph93%30.15 "HgN/A
7:00 PM46 °FPassing clouds.6 mph87%30.15 "HgN/A
6:00 PM48 °FScattered showers. Passing clouds.8 mph87%30.15 "HgN/A
5:00 PM50 °FSprinkles. Partly cloudy.9 mph82%30.12 "Hg5 mi
4:30 PM50 °FSprinkles. Broken clouds.15 mph82%30.12 "HgN/A
4:00 PM52 °FSprinkles. Scattered clouds.14 mph77%30.12 "HgN/A
3:30 PM52 °FScattered showers. Scattered clouds.17 mph72%30.09 "HgN/A
3:00 PM54 °FScattered showers. Partly sunny.18 mph72%30.09 "HgN/A
2:30 PM55 °FSprinkles. Broken clouds.16 mph67%30.09 "HgN/A
2:00 PM55 °FScattered showers. Partly sunny.9 mph59%30.09 "HgN/A
1:30 PM57 °FPartly sunny.8 mph55%30.09 "HgN/A
1:00 PM57 °FPartly sunny.8 mph59%30.09 "HgN/A
12:30 PM57 °FBroken clouds.8 mph55%30.12 "HgN/A
12:00 PM57 °FPartly sunny.6 mph55%30.12 "HgN/A
11:30 AM54 °FPartly sunny.7 mph58%30.12 "HgN/A
11:00 AM55 °FScattered clouds.6 mph59%30.12 "HgN/A
10:30 AM52 °FScattered clouds.5 mph62%30.12 "HgN/A
10:00 AM52 °FScattered clouds.6 mph62%30.12 "HgN/A
9:30 AM50 °FScattered clouds.7 mph71%30.12 "HgN/A
9:00 AM48 °FPartly sunny.6 mph76%30.12 "HgN/A
8:00 AM45 °FScattered clouds.7 mph81%30.12 "HgN/A
7:00 AM43 °FPartly sunny.6 mph87%30.09 "HgN/A
6:00 AM43 °FSprinkles. Broken clouds.8 mph87%30.07 "HgN/A
5:30 AM45 °FSprinkles. Broken clouds.9 mph81%30.07 "HgN/A
5:00 AM43 °FScattered showers. Partly cloudy.10 mph87%30.07 "HgN/A
4:30 AM43 °FPassing clouds.13 mph81%30.04 "HgN/A
4:00 AM43 °FClear.10 mph87%30.04 "HgN/A
3:00 AM45 °FClear.13 mph87%30.04 "HgN/A
2:30 AM43 °FPassing clouds.12 mph93%30.04 "HgN/A
2:00 AM43 °FPassing clouds.9 mph93%30.04 "HgN/A
1:30 AM45 °FPassing clouds.13 mph87%30.04 "HgN/A
1:00 AM45 °FClear.13 mph87%30.04 "HgN/A
Weather by CustomWeather, © 2015

See weather overviewHow to use our weather pages